Punta Gorda, FL

2:33 PM EST on January 22, 2018 (GMT -0500)
Charlotte County

Weather History for KPGD - June, 2013

Change the Weather History Date:

Tuesday, June 25, 2013

  Actual Average Record
Temperature  
Mean Temperature 83 °F -  
Max Temperature 93 °F 88 °F 99 °F (2007)
Min Temperature 73 °F 70 °F 68 °F (2000)
Cooling Degree Days 18    
Growing Degree Days 33 (Base 50)    
Moisture  
Dew Point 72 °F    
Average Humidity 76    
Maximum Humidity 96    
Minimum Humidity 45    
Precipitation  
Precipitation 0.00 in - - ()
Sea Level Pressure  
Sea Level Pressure 30.10 in    
Wind  
Wind Speed 5 mph (East)    
Max Wind Speed 17 mph    
Max Gust Speed 28 mph    
Visibility 10 miles    
Events Thunderstorm    
Averages and records for this station are not official NWS values.
T = Trace of Precipitation, MM = Missing Value Source: NWS Daily Summary

Daily Weather History Graph

Daily Weather History Graph

Search for Another Location

Airport or City:

Trip Planner

Search our weather history database for the weather conditions in past years. The results will help you decide how hot, cold, wet, or windy it might be!

Date:

Astronomy

Jun. 25, 2013 Rise Set
Actual Time 6:35 AM EDT 8:25 PM EDT
Civil Twilight 6:09 AM EDT 8:51 PM EDT
Nautical Twilight 5:37 AM EDT 9:23 PM EDT
Astronomical Twilight 5:03 AM EDT 9:57 PM EDT
Moon 10:28 PM EDT (6/25) 8:59 AM EDT (6/25)
Length of Visible Light 14h 42m
Length of Day
13h 49m
Waning Gibbous, 93% of the Moon is Illuminated
Jun 25
Waning Gibbous
Jun 30
Last Quarter
Jul 8
New
Jul 15
First Quarter
Jul 22
Full

Hourly Weather History & Observations

Time (EDT) Temp. Heat Index Dew Point Humidity Pressure Visibility Wind Dir Wind Speed Gust Speed Precip Events Conditions
12:53 AM 78.1 °F - 72.0 °F 81% 30.17 in 10.0 mi ESE 5.8 mph - N/A   Clear
1:53 AM 77.0 °F - 71.1 °F 82% 30.15 in 10.0 mi East 5.8 mph - N/A   Clear
2:53 AM 75.9 °F - 72.0 °F 87% 30.14 in 10.0 mi East 3.5 mph - N/A   Clear
3:53 AM 75.0 °F - 72.0 °F 90% 30.11 in 10.0 mi Calm Calm - N/A   Clear
4:53 AM 73.9 °F - 72.0 °F 93% 30.10 in 10.0 mi East 3.5 mph - N/A   Clear
5:53 AM 73.9 °F - 72.0 °F 93% 30.12 in 10.0 mi NE 3.5 mph - N/A   Clear
6:53 AM 73.0 °F - 72.0 °F 96% 30.12 in 7.0 mi Calm Calm - N/A   Clear
7:53 AM 75.9 °F - 73.9 °F 94% 30.13 in 9.0 mi East 4.6 mph - N/A   Clear
8:53 AM 82.0 °F 87.9 °F 73.9 °F 76% 30.14 in 10.0 mi ESE 4.6 mph - N/A   Clear
9:53 AM 84.0 °F 90.2 °F 73.0 °F 69% 30.15 in 10.0 mi ESE 8.1 mph - N/A   Clear
10:53 AM 86.0 °F 92.2 °F 72.0 °F 63% 30.16 in 10.0 mi East 5.8 mph - N/A   Scattered Clouds
11:53 AM 88.0 °F 93.8 °F 71.1 °F 57% 30.15 in 10.0 mi Variable 4.6 mph - N/A   Partly Cloudy
12:53 PM 88.0 °F 94.7 °F 72.0 °F 59% 30.14 in 10.0 mi East 9.2 mph - N/A   Mostly Cloudy
1:53 PM 91.0 °F 97.6 °F 71.1 °F 52% 30.12 in 10.0 mi Calm Calm - N/A   Partly Cloudy
2:53 PM 89.1 °F 96.0 °F 72.0 °F 57% 30.10 in 10.0 mi East 10.4 mph 17.3 mph N/A   Overcast
3:53 PM 91.0 °F 97.6 °F 71.1 °F 52% 30.07 in 10.0 mi NE 9.2 mph 17.3 mph N/A   Scattered Clouds
4:53 PM 91.9 °F 97.4 °F 70.0 °F 48% 30.04 in 10.0 mi NNE 5.8 mph - N/A   Scattered Clouds
5:53 PM 93.0 °F 97.9 °F 69.1 °F 45% 30.04 in 10.0 mi ENE 9.2 mph - N/A   Partly Cloudy
6:28 PM 89.6 °F 96.2 °F 71.6 °F 55% 30.04 in 10.0 mi East 12.7 mph - N/A Thunderstorm Mostly Cloudy
6:53 PM 82.9 °F 87.5 °F 71.1 °F 67% 30.06 in 10.0 mi East 17.3 mph 27.6 mph N/A Thunderstorm Thunderstorm
7:51 PM 75.2 °F - 71.6 °F 89% 30.06 in 10.0 mi SE 10.4 mph - 0.00 in Thunderstorm Partly Cloudy
7:53 PM 75.9 °F - 72.0 °F 87% 30.06 in 10.0 mi SE 9.2 mph - 0.00 in Thunderstorm Partly Cloudy
8:12 PM 77.0 °F - 73.4 °F 89% 30.08 in 10.0 mi South 8.1 mph - N/A   Clear
8:53 PM 77.0 °F - 73.0 °F 88% 30.09 in 10.0 mi Calm Calm - N/A   Clear
9:09 PM 77.0 °F - 73.4 °F 89% 30.09 in 10.0 mi SE 3.5 mph - N/A Thunderstorm Clear
9:24 PM 77.0 °F - 73.4 °F 89% 30.08 in 10.0 mi SSE 3.5 mph - N/A   Clear
9:53 PM 78.1 °F - 73.9 °F 87% 30.09 in 10.0 mi Calm Calm - N/A   Clear
10:53 PM 78.1 °F - 73.9 °F 87% 30.09 in 10.0 mi ESE 4.6 mph - N/A   Clear
11:53 PM 78.1 °F - 73.9 °F 87% 30.10 in 10.0 mi Calm Calm - N/A   Clear